Wind_Speed
4 5 5 5 6 5 5 5 5 6 6 6 6 6 6 6 7 7 6 6 6 6 6 6 7 6 6 6 5 5 5 5 6 6 6 6 6 6 5 5 4 5 5
5 6 6 6 7 7 7 7 7 7 6 6 7 7 7 7 7 7 7 7 7 7 6 6 6 6 6 6 6 6 6 6 6 6 7 7 7 7 6 6 5 5 5
7 7 7 8 8 8 8 8 8 7 7 7 7 8 8 8 8 8 7 7 7 7 7 7 7 6 7 7 7 7 8 8 8 8 8 8 8 8 8 7 6 6 6
8 8 8 8 9 9 9 9 9 9 8 8 8 9 9 9 9 9 8 7 7 8 7 8 7 7 7 7 7 8 8 8 8 9 9 9 9 9 9 8 7 7 7
8 9 9 9 9 9 10 10 9 9 9 9 10 9 9 9 9 9 9 9 9 9 8 8 9 8 8 8 8 8 8 8 8 8 9 8 9 9 9 9 9 9 9
9 9 9 9 9 10 10 9 9 9 10 10 10 10 10 9 9 9 9 10 10 10 9 9 9 9 9 9 9 9 9 9 9 8 8 9 9 9 9 10 10 10 10
8 9 9 9 9 10 10 9 9 9 10 10 10 10 10 10 9 9 10 10 10 10 10 9 10 10 10 10 10 9 9 10 9 9 8 8 9 9 10 10 10 10 10
8 8 8 9 9 9 9 9 10 10 10 10 10 10 10 10 10 10 10 11 10 10 10 10 10 11 11 10 10 9 10 10 10 9 9 9 9 9 10 11 11 11 11
9 9 9 9 9 9 9 9 10 10 10 10 11 10 10 10 10 10 11 11 11 10 9 10 10 11 11 10 10 10 10 10 10 10 10 10 10 10 10 11 11 11 11
9 9 10 9 9 9 9 10 10 11 10 11 10 10 9 9 9 10 10 10 10 10 10 10 10 10 10 11 11 10 10 10 10 10 10 10 10 11 11 11 11 11 12
9 9 10 9 8 9 9 10 10 10 10 11 10 10 9 9 9 9 9 9 10 10 10 10 10 11 11 11 11 11 11 10 10 10 10 10 10 11 11 11 11 11 12
9 10 9 10 9 9 10 10 10 9 10 10 10 10 9 9 9 9 9 9 9 10 10 10 10 11 12 12 12 12 11 11 11 10 10 10 11 11 11 11 11 11 12
10 10 9 9 9 10 10 10 10 10 10 10 10 10 9 9 9 10 10 10 9 9 9 10 11 11 11 12 12 11 11 11 10 10 10 10 10 10 11 11 11 11 11
10 10 10 10 10 10 10 10 10 10 10 10 10 9 9 9 9 10 9 9 9 9 9 9 10 10 10 11 11 10 10 10 10 10 10 10 10 10 11 11 11 11 12
10 10 10 10 10 10 10 10 10 10 10 10 10 9 9 9 9 10 10 10 9 9 9 9 9 10 10 10 9 9 9 10 9 9 10 10 10 10 11 11 11 10 11
10 10 10 10 10 10 10 10 10 10 10 11 10 10 9 9 10 10 10 9 9 9 9 9 10 9 9 9 8 8 9 9 9 10 10 10 10 10 10 10 10 10 10
10 9 9 9 10 10 9 9 10 10 10 11 11 11 10 9 9 9 9 9 9 9 9 9 9 9 8 8 8 8 8 9 9 9 9 9 9 9 9 9 9 9 9
9 9 9 9 10 10 11 10 10 9 9 9 10 10 9 9 9 9 9 9 9 9 8 9 9 9 9 9 8 8 8 9 8 8 8 8 8 8 8 8 8 8 8
10 10 10 10 10 11 11 11 11 10 9 9 9 9 9 9 9 9 9 9 8 9 8 8 8 9 9 9 9 9 8 9 9 8 8 8 8 8 8 7 7 7 8
11 11 10 10 11 12 12 12 11 10 10 9 9 8 9 9 8 8 8 8 8 8 8 8 8 8 8 9 9 8 8 8 8 8 7 8 8 8 8 7 7 7 7
11 11 11 11 11 12 11 11 11 10 10 9 9 9 8 8 8 8 8 8 8 8 8 8 8 8 8 8 8 8 8 7 7 7 7 7 7 8 7 7 7 7 7
11 11 11 12 12 12 11 10 10 10 10 9 9 9 8 8 8 8 9 9 9 9 9 8 8 8 8 8 8 8 8 7 7 7 8 8 8 7 7 7 7 7 7
12 12 12 12 12 12 12 11 11 10 9 8 8 8 8 8 8 8 8 9 9 9 8 8 8 7 7 7 8 8 8 8 8 8 8 8 7 7 7 8 7 7 6
13 13 12 12 12 12 12 12 11 10 9 9 9 8 9 9 9 8 8 8 8 8 8 8 7 7 7 7 7 7 8 8 8 7 7 7 6 6 6 7 6 6 6
13 13 13 13 13 12 12 12 10 10 10 9 9 9 9 8 8 8 8 8 8 8 8 8 8 8 7 7 7 7 8 8 8 8 7 6 6 6 6 6 6 6 6
13 14 14 13 13 13 13 12 11 10 10 9 9 9 9 9 8 8 8 9 9 8 8 8 8 7 7 8 8 8 8 8 8 7 7 6 6 6 6 6 6 6 6
Wind_Direction
285 284 282 278 279 281 279 273 274 275 269 262 259 256 257 259 253 252 253 258 261 262 264 259 253 253 252 258 262 267 269 276 272 273 262 258 262 257 260 268 270 270 269
283 280 276 278 278 281 282 278 274 274 275 272 267 264 265 263 258 256 259 265 264 261 264 267 264 263 257 257 260 266 268 270 271 275 271 266 263 260 260 263 265 269 272
282 281 276 276 276 278 279 279 276 274 279 277 273 272 271 267 261 266 264 266 263 262 263 268 268 265 262 259 262 268 271 270 269 271 269 266 263 264 266 264 264 269 274
284 282 279 276 275 277 277 277 276 275 277 276 275 273 272 272 265 266 265 263 262 262 264 268 267 266 265 265 267 271 274 276 270 267 266 265 264 263 263 265 267 269 275
283 283 281 278 278 279 281 277 274 274 275 275 277 278 276 273 268 265 263 263 263 265 265 268 264 264 266 266 267 272 273 274 273 268 266 265 265 263 262 263 265 268 273
283 281 281 282 280 282 285 279 276 276 277 277 280 280 276 273 270 265 264 265 265 268 268 268 267 264 266 265 266 270 271 269 272 272 268 266 266 267 266 268 271 273 275
290 285 283 284 285 283 285 283 279 279 277 276 278 278 274 270 269 271 269 269 269 269 265 266 267 268 269 267 268 270 270 268 268 272 269 266 267 267 269 271 272 274 275
299 292 290 288 290 289 286 285 284 280 279 275 277 276 274 272 272 273 270 268 269 268 266 266 267 266 267 267 269 270 269 270 269 268 268 267 268 268 270 271 272 275 277
302 299 293 288 290 292 291 288 287 286 283 279 275 274 273 272 271 273 270 269 268 268 267 268 267 267 265 264 268 270 268 271 275 272 270 270 268 270 274 275 273 273 276
306 302 297 292 289 289 292 291 290 288 287 284 278 277 275 270 271 272 270 269 269 268 270 267 265 265 265 267 270 270 274 273 274 275 274 272 271 273 276 277 275 274 276
312 306 303 300 299 295 294 294 293 289 286 285 282 280 276 274 271 269 270 268 270 271 270 268 268 267 264 269 273 273 273 272 276 278 278 275 274 275 276 276 276 277 278
316 312 307 305 305 303 300 299 296 290 286 285 283 279 280 277 273 270 270 269 271 272 270 268 270 272 272 273 273 274 272 272 275 278 280 280 279 277 277 277 277 277 279
316 316 311 306 304 304 300 297 294 291 288 286 285 281 279 275 273 271 271 272 272 273 270 271 270 274 276 277 278 277 276 273 277 278 278 282 281 279 278 278 279 280 281
314 314 312 309 307 304 302 297 293 292 286 285 284 279 276 274 272 271 274 274 274 274 273 272 272 275 276 278 279 279 279 277 279 282 284 285 284 282 284 280 281 282 284
314 310 310 310 308 309 307 301 296 292 290 285 281 280 279 275 272 271 275 276 275 274 275 274 273 274 276 278 278 278 276 276 278 282 285 284 285 284 286 286 285 285 287
314 313 310 309 308 311 313 308 303 301 291 288 286 280 282 281 275 272 274 277 278 275 272 275 275 275 275 279 278 278 279 280 279 280 282 283 285 284 284 286 288 288 289
314 318 314 312 313 312 314 313 307 304 297 289 286 282 281 281 277 273 274 276 278 277 273 275 276 274 277 280 279 281 281 283 282 281 281 279 280 282 284 284 287 289 290
311 312 312 308 311 316 318 317 314 307 302 296 287 281 281 280 277 273 273 275 276 278 276 276 279 278 280 280 281 280 281 284 286 289 287 282 280 284 285 284 288 289 288
308 309 309 307 308 312 313 314 313 310 302 294 288 283 281 281 279 275 275 274 273 275 277 276 276 278 279 277 278 280 282 283 284 288 287 290 287 290 285 283 288 290 290
308 307 308 310 309 309 310 311 308 306 300 292 284 282 283 284 279 274 275 274 272 274 276 275 276 276 278 278 274 274 278 279 283 284 286 291 289 289 284 283 287 289 291
308 307 308 310 311 311 311 310 305 302 298 293 286 281 285 287 281 275 273 275 273 275 276 278 275 276 277 277 269 268 271 275 280 284 287 291 292 294 290 289 285 290 291
308 306 305 306 307 309 311 310 305 303 298 294 285 278 283 289 281 276 276 276 275 275 276 276 273 272 275 274 269 268 268 272 277 280 287 288 291 294 297 296 291 289 289
303 304 305 306 305 305 306 308 306 304 299 296 290 287 281 288 285 281 276 276 276 277 277 274 273 273 274 275 269 269 269 270 276 277 280 283 283 284 287 285 285 289 295
300 301 302 302 304 305 305 307 306 303 299 297 293 288 286 286 285 279 277 275 276 278 276 270 270 271 272 277 278 275 273 274 277 280 280 279 275 278 283 285 287 288 291
296 299 300 300 302 304 304 304 302 301 298 295 294 294 290 286 284 279 276 275 277 276 272 271 265 267 268 271 274 277 277 275 273 276 279 276 276 280 285 285 286 288 291
292 294 296 296 296 297 298 297 295 295 295 292 291 290 288 287 286 281 276 277 278 273 270 271 267 269 269 273 275 276 275 275 273 269 273 277 280 281 279 281 282 288 292
Height
5878 5878 5878 5878 5878 5878 5878 5878 5878 5878 5877 5877 5877 5877 5877 5877 5877 5877 5877 5878 5878 5878 5878 5878 5878 5879 5879 5879 5879 5879 5879 5879 5880 5880 5879 5880 5880 5880 5881 5881 5882 5882 5882
5878 5877 5877 5877 5877 5877 5877 5877 5877 5876 5876 5876 5876 5876 5876 5876 5876 5876 5876 5877 5877 5877 5877 5877 5877 5877 5878 5878 5878 5878 5878 5878 5879 5879 5879 5879 5879 5880 5880 5880 5881 5881 5882
5877 5877 5876 5876 5876 5876 5875 5875 5875 5875 5875 5875 5874 5874 5874 5874 5875 5875 5875 5875 5875 5876 5876 5876 5876 5876 5876 5877 5877 5877 5877 5878 5878 5878 5878 5878 5878 5879 5879 5879 5880 5880 5881
5876 5875 5875 5875 5875 5874 5874 5874 5874 5873 5873 5873 5873 5873 5873 5873 5873 5873 5874 5874 5874 5874 5875 5875 5875 5875 5875 5876 5876 5876 5876 5876 5876 5877 5877 5877 5877 5877 5878 5878 5879 5879 5880
5874 5874 5873 5873 5873 5873 5872 5872 5872 5872 5872 5872 5871 5871 5871 5871 5871 5872 5872 5872 5873 5873 5873 5873 5874 5874 5874 5874 5874 5874 5875 5875 5875 5875 5875 5875 5876 5876 5876 5877 5877 5878 5878
5873 5872 5872 5872 5871 5871 5871 5870 5870 5870 5870 5870 5869 5869 5869 5869 5869 5870 5870 5871 5871 5871 5871 5872 5872 5872 5872 5873 5873 5873 5873 5873 5873 5873 5873 5874 5874 5874 5874 5875 5875 5876 5876
5871 5871 5870 5870 5870 5869 5869 5869 5868 5868 5868 5868 5868 5867 5868 5868 5868 5868 5868 5869 5869 5869 5870 5870 5870 5870 5871 5871 5871 5871 5871 5871 5871 5872 5872 5872 5872 5872 5873 5873 5873 5874 5874
5870 5869 5869 5868 5868 5867 5867 5867 5866 5866 5866 5866 5866 5866 5866 5866 5866 5866 5866 5867 5867 5867 5868 5868 5868 5868 5869 5869 5869 5869 5869 5869 5869 5870 5870 5870 5871 5871 5871 5871 5871 5872 5872
5868 5867 5867 5866 5866 5865 5865 5865 5864 5864 5864 5864 5864 5864 5864 5864 5864 5864 5865 5865 5865 5865 5865 5866 5866 5866 5867 5867 5867 5867 5867 5868 5867 5868 5868 5868 5869 5869 5869 5869 5869 5870 5870
5866 5866 5865 5864 5864 5864 5863 5863 5862 5862 5862 5862 5861 5861 5861 5862 5862 5862 5862 5863 5863 5863 5863 5864 5864 5864 5865 5865 5865 5865 5865 5866 5866 5866 5866 5866 5866 5866 5867 5867 5867 5868 5868
5865 5864 5863 5862 5862 5862 5862 5861 5860 5860 5860 5860 5859 5859 5859 5860 5860 5860 5861 5861 5861 5861 5861 5862 5862 5862 5863 5863 5863 5863 5864 5864 5864 5864 5864 5864 5864 5865 5865 5865 5865 5865 5866
5863 5862 5862 5861 5861 5860 5860 5859 5859 5858 5858 5858 5857 5857 5857 5858 5858 5859 5859 5859 5859 5859 5859 5860 5860 5860 5861 5861 5861 5862 5862 5862 5862 5863 5863 5863 5862 5863 5863 5863 5863 5863 5863
5862 5861 5860 5860 5859 5859 5858 5858 5857 5856 5856 5856 5855 5855 5855 5856 5856 5857 5857 5857 5857 5857 5858 5858 5858 5859 5859 5859 5859 5860 5860 5860 5860 5861 5861 5861 5861 5861 5861 5861 5861 5861 5861
5860 5860 5859 5858 5858 5857 5857 5856 5855 5855 5854 5854 5854 5853 5854 5854 5854 5855 5855 5856 5856 5856 5856 5856 5857 5857 5857 5857 5858 5858 5858 5858 5859 5859 5859 5859 5859 5859 5859 5859 5859 5859 5859
5859 5858 5858 5857 5856 5856 5855 5854 5854 5853 5853 5852 5852 5852 5852 5852 5853 5853 5853 5854 5854 5854 5855 5855 5855 5855 5856 5856 5856 5856 5856 5857 5857 5857 5857 5857 5857 5857 5857 5857 5857 5857 5856
5858 5857 5856 5856 5855 5854 5854 5853 5852 5851 5851 5851 5850 5850 5850 5850 5851 5851 5852 5852 5852 5852 5853 5853 5853 5854 5854 5854 5854 5855 5855 5855 5855 5855 5855 5855 5855 5855 5855 5855 5855 5855 5854
5856 5856 5855 5854 5854 5853 5852 5851 5850 5850 5849 5849 5849 5849 5849 5849 5849 5849 5850 5850 5850 5851 5851 5851 5852 5852 5852 5853 5853 5853 5853 5853 5853 5853 5853 5853 5853 5853 5853 5853 5853 5853 5853
5855 5854 5854 5853 5852 5852 5851 5850 5849 5848 5847 5847 5847 5847 5847 5847 5848 5848 5848 5848 5848 5849 5849 5850 5850 5850 5850 5851 5851 5851 5851 5852 5852 5852 5851 5851 5852 5852 5852 5852 5851 5851 5851
5854 5853 5853 5852 5851 5850 5849 5848 5847 5846 5845 5845 5845 5845 5845 5846 5846 5846 5846 5847 5847 5847 5848 5848 5848 5848 5849 5849 5849 5850 5850 5850 5850 5850 5850 5850 5850 5850 5850 5850 5850 5850 5850
5852 5852 5851 5850 5849 5849 5848 5847 5846 5845 5844 5844 5844 5844 5844 5844 5844 5844 5845 5845 5845 5846 5846 5846 5847 5847 5847 5847 5848 5848 5848 5849 5848 5848 5848 5848 5848 5848 5849 5849 5849 5848 5848
5851 5850 5849 5849 5848 5847 5846 5845 5844 5843 5842 5842 5842 5842 5842 5842 5843 5843 5843 5844 5844 5844 5845 5845 5845 5845 5845 5846 5846 5846 5847 5847 5847 5847 5847 5847 5847 5847 5847 5847 5847 5847 5847
5850 5849 5848 5847 5846 5845 5844 5843 5843 5842 5841 5841 5840 5840 5841 5841 5841 5841 5842 5842 5842 5843 5843 5843 5843 5844 5844 5844 5845 5845 5845 5846 5846 5846 5846 5846 5846 5846 5846 5846 5846 5846 5845
5848 5847 5846 5845 5844 5843 5842 5842 5841 5840 5839 5839 5839 5838 5839 5839 5839 5840 5840 5841 5841 5841 5842 5842 5842 5842 5842 5843 5843 5843 5844 5844 5844 5844 5844 5844 5845 5845 5845 5844 5844 5844 5844
5846 5845 5844 5843 5842 5841 5840 5840 5839 5839 5838 5838 5838 5838 5838 5838 5838 5838 5838 5839 5839 5840 5840 5840 5840 5841 5841 5841 5842 5842 5842 5842 5843 5843 5843 5843 5843 5843 5843 5843 5843 5843 5843
5843 5843 5842 5841 5840 5839 5838 5838 5837 5837 5837 5836 5836 5836 5836 5836 5836 5836 5837 5837 5837 5838 5838 5839 5839 5839 5840 5840 5840 5840 5841 5841 5841 5841 5841 5842 5842 5842 5842 5842 5842 5842 5842
5841 5840 5839 5838 5838 5837 5836 5836 5835 5835 5834 5834 5834 5835 5835 5834 5834 5835 5835 5835 5836 5836 5837 5837 5837 5838 5838 5839 5839 5839 5839 5839 5839 5840 5840 5840 5841 5841 5841 5841 5841 5841 5840